Time,TemperatureF,DewpointF,PressureIn,WindDirection,WindDirectionDegrees,WindSpeedMPH,WindSpeedGustMPH,Humidity,HourlyPrecipIn,Conditions,Clouds,dailyrainin,SolarRadiationWatts/m^2,SoftwareType,DateUTC
2013-01-22 00:23:00,15.0,12.0,-100.00,ENE,63,9.0,12.0,86,0.00,,,0.00,0.000000,,2013-01-22 05:23:00,
2013-01-22 00:33:00,15.0,12.0,-100.00,ENE,63,9.0,12.0,86,0.00,,,0.00,0.000000,,2013-01-22 05:33:00,
2013-01-22 00:43:00,15.0,12.0,-100.00,ENE,63,9.0,12.0,86,0.00,,,0.00,0.000000,,2013-01-22 05:43:00,
2013-01-22 00:52:00,15.0,12.0,-100.00,ENE,63,9.0,12.0,86,0.00,,,0.00,0.000000,,2013-01-22 05:52:00,
2013-01-22 01:22:00,15.0,12.0,-100.00,ENE,61,10.0,14.0,87,0.00,,,0.00,0.000000,,2013-01-22 06:22:00,
2013-01-22 01:33:00,15.0,12.0,-100.00,ENE,61,10.0,14.0,87,0.00,,,0.00,0.000000,,2013-01-22 06:33:00,
2013-01-22 01:43:00,15.0,12.0,-100.00,ENE,61,10.0,14.0,87,0.00,,,0.00,0.000000,,2013-01-22 06:43:00,
2013-01-22 01:52:00,15.0,12.0,-100.00,ENE,61,10.0,14.0,87,0.00,,,0.00,0.000000,,2013-01-22 06:52:00,
2013-01-22 02:22:00,14.0,10.0,-100.00,ENE,63,11.0,15.0,82,0.00,,,0.00,0.000000,,2013-01-22 07:22:00,
2013-01-22 02:33:00,14.0,10.0,-100.00,ENE,63,11.0,15.0,82,0.00,,,0.00,0.000000,,2013-01-22 07:33:00,
2013-01-22 02:42:00,14.0,10.0,-100.00,ENE,63,11.0,15.0,82,0.00,,,0.00,0.000000,,2013-01-22 07:42:00,
2013-01-22 02:52:00,14.0,10.0,-100.00,ENE,63,11.0,15.0,82,0.00,,,0.00,0.000000,,2013-01-22 07:52:00,
2013-01-22 03:22:00,13.0,6.0,-100.00,ENE,69,13.0,18.0,73,0.00,,,0.00,0.000000,,2013-01-22 08:22:00,
2013-01-22 03:33:00,13.0,6.0,-100.00,ENE,69,13.0,18.0,73,0.00,,,0.00,0.000000,,2013-01-22 08:33:00,
2013-01-22 03:43:00,13.0,6.0,-100.00,ENE,69,13.0,18.0,73,0.00,,,0.00,0.000000,,2013-01-22 08:43:00,
2013-01-22 03:52:00,13.0,6.0,-100.00,ENE,69,13.0,18.0,73,0.00,,,0.00,0.000000,,2013-01-22 08:52:00,
2013-01-22 04:23:00,13.0,2.0,-100.00,ENE,67,12.0,18.0,61,0.00,,,0.00,0.000000,,2013-01-22 09:23:00,
2013-01-22 04:33:00,13.0,2.0,-100.00,ENE,67,12.0,18.0,61,0.00,,,0.00,0.000000,,2013-01-22 09:33:00,
2013-01-22 04:43:00,13.0,2.0,-100.00,ENE,67,12.0,18.0,61,0.00,,,0.00,0.000000,,2013-01-22 09:43:00,
2013-01-22 04:52:00,13.0,2.0,-100.00,ENE,67,12.0,18.0,61,0.00,,,0.00,0.000000,,2013-01-22 09:52:00,
2013-01-22 05:22:00,11.0,1.0,-100.00,ENE,65,13.0,19.0,64,0.00,,,0.00,0.000000,,2013-01-22 10:22:00,
2013-01-22 05:33:00,11.0,1.0,-100.00,ENE,65,13.0,19.0,64,0.00,,,0.00,0.000000,,2013-01-22 10:33:00,
2013-01-22 05:42:00,11.0,1.0,-100.00,ENE,65,13.0,19.0,64,0.00,,,0.00,0.000000,,2013-01-22 10:42:00,
2013-01-22 05:52:00,11.0,1.0,-100.00,ENE,65,13.0,19.0,64,0.00,,,0.00,0.000000,,2013-01-22 10:52:00,
2013-01-22 06:23:00,10.0,2.0,-100.00,ENE,65,12.0,20.0,68,0.00,,,0.00,0.000000,,2013-01-22 11:23:00,
2013-01-22 06:33:00,10.0,2.0,-100.00,ENE,65,12.0,20.0,68,0.00,,,0.00,0.000000,,2013-01-22 11:33:00,
2013-01-22 06:43:00,10.0,2.0,-100.00,ENE,65,12.0,20.0,68,0.00,,,0.00,0.000000,,2013-01-22 11:43:00,
2013-01-22 06:53:00,10.0,2.0,-100.00,ENE,65,12.0,20.0,68,0.00,,,0.00,0.000000,,2013-01-22 11:53:00,
2013-01-22 07:23:00,10.0,-6.0,-100.00,ENE,64,13.0,20.0,48,0.00,,,0.00,0.000000,,2013-01-22 12:23:00,
2013-01-22 07:33:00,10.0,-6.0,-100.00,ENE,64,13.0,20.0,48,0.00,,,0.00,0.000000,,2013-01-22 12:33:00,
2013-01-22 07:43:00,10.0,-6.0,-100.00,ENE,64,13.0,20.0,48,0.00,,,0.00,0.000000,,2013-01-22 12:43:00,
2013-01-22 07:52:00,10.0,-6.0,-100.00,ENE,64,13.0,20.0,48,0.00,,,0.00,0.000000,,2013-01-22 12:52:00,
2013-01-22 08:23:00,9.0,-5.0,-100.00,NE,54,10.0,20.0,52,0.00,,,0.00,12.000000,,2013-01-22 13:23:00,
2013-01-22 08:33:00,9.0,-5.0,-100.00,NE,54,10.0,20.0,52,0.00,,,0.00,12.000000,,2013-01-22 13:33:00,
2013-01-22 08:43:00,9.0,-5.0,-100.00,NE,54,10.0,20.0,52,0.00,,,0.00,12.000000,,2013-01-22 13:43:00,
2013-01-22 08:53:00,9.0,-5.0,-100.00,NE,54,10.0,20.0,52,0.00,,,0.00,12.000000,,2013-01-22 13:53:00,
2013-01-22 09:23:00,8.0,-8.0,-100.00,NE,44,10.0,17.0,46,0.00,,,0.00,44.000000,,2013-01-22 14:23:00,
2013-01-22 09:34:00,8.0,-8.0,-100.00,NE,44,10.0,17.0,46,0.00,,,0.00,44.000000,,2013-01-22 14:34:00,
2013-01-22 09:44:00,8.0,-8.0,-100.00,NE,44,10.0,17.0,46,0.00,,,0.00,44.000000,,2013-01-22 14:44:00,
2013-01-22 09:53:00,8.0,-8.0,-100.00,NE,44,10.0,17.0,46,0.00,,,0.00,44.000000,,2013-01-22 14:53:00,
2013-01-22 10:24:00,8.0,-9.0,-100.00,NE,49,9.0,18.0,44,0.00,,,0.00,89.000000,,2013-01-22 15:24:00,
2013-01-22 10:34:00,8.0,-9.0,-100.00,NE,49,9.0,18.0,44,0.00,,,0.00,89.000000,,2013-01-22 15:34:00,
2013-01-22 10:43:00,8.0,-9.0,-100.00,NE,49,9.0,18.0,44,0.00,,,0.00,89.000000,,2013-01-22 15:43:00,
2013-01-22 10:53:00,8.0,-9.0,-100.00,NE,49,9.0,18.0,44,0.00,,,0.00,89.000000,,2013-01-22 15:53:00,
2013-01-22 11:24:00,9.0,-9.0,-100.00,NE,38,7.0,16.0,42,0.00,,,0.00,141.000000,,2013-01-22 16:24:00,
2013-01-22 11:33:00,9.0,-9.0,-100.00,NE,38,7.0,16.0,42,0.00,,,0.00,141.000000,,2013-01-22 16:33:00,
2013-01-22 11:43:00,9.0,-9.0,-100.00,NE,38,7.0,16.0,42,0.00,,,0.00,141.000000,,2013-01-22 16:43:00,
2013-01-22 11:53:00,9.0,-9.0,-100.00,NE,38,7.0,16.0,42,0.00,,,0.00,141.000000,,2013-01-22 16:53:00,
2013-01-22 12:23:00,11.0,-10.0,-100.00,NNE,28,6.0,14.0,38,0.00,,,0.00,269.000000,,2013-01-22 17:23:00,
2013-01-22 12:34:00,11.0,-10.0,-100.00,NNE,28,6.0,14.0,38,0.00,,,0.00,269.000000,,2013-01-22 17:34:00,
2013-01-22 12:44:00,11.0,-10.0,-100.00,NNE,28,6.0,14.0,38,0.00,,,0.00,269.000000,,2013-01-22 17:44:00,
2013-01-22 12:53:00,11.0,-10.0,-100.00,NNE,28,6.0,14.0,38,0.00,,,0.00,269.000000,,2013-01-22 17:53:00,
2013-01-22 13:24:00,10.0,-9.0,-100.00,NNW,342,4.0,13.0,40,0.00,,,0.00,248.000000,,2013-01-22 18:24:00,
2013-01-22 13:34:00,10.0,-9.0,-100.00,NNW,342,4.0,13.0,40,0.00,,,0.00,248.000000,,2013-01-22 18:34:00,
2013-01-22 13:43:00,10.0,-9.0,-100.00,NNW,342,4.0,13.0,40,0.00,,,0.00,248.000000,,2013-01-22 18:43:00,
2013-01-22 13:53:00,10.0,-9.0,-100.00,NNW,342,4.0,13.0,40,0.00,,,0.00,248.000000,,2013-01-22 18:53:00,
2013-01-22 14:24:00,10.0,-10.0,-100.00,NNW,345,4.0,11.0,39,0.00,,,0.00,201.000000,,2013-01-22 19:24:00,
2013-01-22 14:34:00,10.0,-10.0,-100.00,NNW,345,4.0,11.0,39,0.00,,,0.00,201.000000,,2013-01-22 19:34:00,
2013-01-22 14:43:00,10.0,-10.0,-100.00,NNW,345,4.0,11.0,39,0.00,,,0.00,201.000000,,2013-01-22 19:43:00,
2013-01-22 14:53:00,10.0,-10.0,-100.00,NNW,345,4.0,11.0,39,0.00,,,0.00,201.000000,,2013-01-22 19:53:00,
2013-01-22 15:23:00,9.0,-9.0,-100.00,NW,320,3.0,11.0,42,0.00,,,0.00,148.000000,,2013-01-22 20:23:00,
2013-01-22 15:34:00,9.0,-9.0,-100.00,NW,320,3.0,11.0,42,0.00,,,0.00,148.000000,,2013-01-22 20:34:00,
2013-01-22 15:43:00,9.0,-9.0,-100.00,NW,320,3.0,11.0,42,0.00,,,0.00,148.000000,,2013-01-22 20:43:00,
2013-01-22 15:53:00,9.0,-9.0,-100.00,NW,320,3.0,11.0,42,0.00,,,0.00,148.000000,,2013-01-22 20:53:00,
2013-01-22 16:23:00,9.0,-9.0,-100.00,NW,305,4.0,9.0,43,0.00,,,0.00,96.000000,,2013-01-22 21:23:00,
2013-01-22 16:34:00,9.0,-9.0,-100.00,NW,305,4.0,9.0,43,0.00,,,0.00,96.000000,,2013-01-22 21:34:00,
2013-01-22 16:43:00,9.0,-9.0,-100.00,NW,305,4.0,9.0,43,0.00,,,0.00,96.000000,,2013-01-22 21:43:00,
2013-01-22 16:53:00,9.0,-9.0,-100.00,NW,305,4.0,9.0,43,0.00,,,0.00,96.000000,,2013-01-22 21:53:00,
2013-01-22 17:23:00,6.0,-11.0,-100.00,NW,312,3.0,8.0,45,0.00,,,0.00,10.000000,,2013-01-22 22:23:00,
2013-01-22 17:33:00,6.0,-11.0,-100.00,NW,312,3.0,8.0,45,0.00,,,0.00,10.000000,,2013-01-22 22:33:00,
2013-01-22 17:43:00,6.0,-11.0,-100.00,NW,312,3.0,8.0,45,0.00,,,0.00,10.000000,,2013-01-22 22:43:00,
2013-01-22 17:53:00,6.0,-11.0,-100.00,NW,312,3.0,8.0,45,0.00,,,0.00,10.000000,,2013-01-22 22:53:00,
2013-01-22 18:24:00,4.0,-9.0,-100.00,WNW,287,3.0,7.0,54,0.00,,,0.00,0.000000,,2013-01-22 23:24:00,
2013-01-22 18:33:00,4.0,-9.0,-100.00,WNW,287,3.0,7.0,54,0.00,,,0.00,0.000000,,2013-01-22 23:33:00,
2013-01-22 18:43:00,4.0,-9.0,-100.00,WNW,287,3.0,7.0,54,0.00,,,0.00,0.000000,,2013-01-22 23:43:00,
2013-01-22 18:53:00,4.0,-9.0,-100.00,WNW,287,3.0,7.0,54,0.00,,,0.00,0.000000,,2013-01-22 23:53:00,
2013-01-22 19:23:00,4.0,-9.0,-100.00,West,274,2.0,4.0,53,0.00,,,0.00,0.000000,,2013-01-23 00:23:00,
2013-01-22 19:33:00,4.0,-9.0,-100.00,West,274,2.0,4.0,53,0.00,,,0.00,0.000000,,2013-01-23 00:33:00,
2013-01-22 19:43:00,4.0,-9.0,-100.00,West,274,2.0,4.0,53,0.00,,,0.00,0.000000,,2013-01-23 00:43:00,
2013-01-22 19:52:00,4.0,-9.0,-100.00,West,274,2.0,4.0,53,0.00,,,0.00,0.000000,,2013-01-23 00:52:00,
2013-01-22 20:23:00,2.0,-10.0,-100.00,WNW,287,0.0,3.0,57,0.00,,,0.00,0.000000,,2013-01-23 01:23:00,
2013-01-22 20:33:00,2.0,-10.0,-100.00,WNW,287,0.0,3.0,57,0.00,,,0.00,0.000000,,2013-01-23 01:33:00,
2013-01-22 20:43:00,2.0,-10.0,-100.00,WNW,287,0.0,3.0,57,0.00,,,0.00,0.000000,,2013-01-23 01:43:00,
2013-01-22 20:52:00,2.0,-10.0,-100.00,WNW,287,0.0,3.0,57,0.00,,,0.00,0.000000,,2013-01-23 01:52:00,
2013-01-22 21:23:00,3.0,-8.0,-100.00,West,275,1.0,3.0,58,0.00,,,0.00,0.000000,,2013-01-23 02:23:00,
2013-01-22 21:33:00,3.0,-8.0,-100.00,West,275,1.0,3.0,58,0.00,,,0.00,0.000000,,2013-01-23 02:33:00,
2013-01-22 21:43:00,3.0,-8.0,-100.00,West,275,1.0,3.0,58,0.00,,,0.00,0.000000,,2013-01-23 02:43:00,
2013-01-22 21:53:00,3.0,-8.0,-100.00,West,275,1.0,3.0,58,0.00,,,0.00,0.000000,,2013-01-23 02:53:00,
2013-01-22 22:23:00,7.0,-7.0,-100.00,West,281,4.0,10.0,51,0.00,,,0.00,0.000000,,2013-01-23 03:23:00,
2013-01-22 22:33:00,7.0,-7.0,-100.00,West,281,4.0,10.0,51,0.00,,,0.00,0.000000,,2013-01-23 03:33:00,
2013-01-22 22:43:00,7.0,-7.0,-100.00,West,281,4.0,10.0,51,0.00,,,0.00,0.000000,,2013-01-23 03:43:00,
2013-01-22 22:53:00,7.0,-7.0,-100.00,West,281,4.0,10.0,51,0.00,,,0.00,0.000000,,2013-01-23 03:53:00,
2013-01-22 23:23:00,7.0,-11.0,-100.00,NW,304,5.0,16.0,43,0.00,,,0.00,0.000000,,2013-01-23 04:23:00,
2013-01-22 23:33:00,7.0,-11.0,-100.00,NW,304,5.0,16.0,43,0.00,,,0.00,0.000000,,2013-01-23 04:33:00,
2013-01-22 23:43:00,7.0,-11.0,-100.00,NW,304,5.0,16.0,43,0.00,,,0.00,0.000000,,2013-01-23 04:43:00,
2013-01-22 23:52:00,7.0,-11.0,-100.00,NW,304,5.0,16.0,43,0.00,,,0.00,0.000000,,2013-01-23 04:52:00,